Home > Weather > Fortaleza > Past weeks

Flag for Brazil Past Weather in Fortaleza, Ceará, Brazil — Yesterday and Last 2 Weeks

Now
82 °F

Passing clouds.


Feels Like: 88 °F
Forecast: 78 / 87 °F
Wind: 7 mph from East

Location: Fortaleza Aeropor-To

Current Time: May 26, 2016 at 9:35:52 PM

Latest Report: May 26, 2016 at 9:00 PM


Visibility: N/A

Pressure: 29.95 "Hg

Humidity: 74%

Dew Point: 73 °F

Location of FortalezaLocation

Past Weather in Fortaleza — Graph

°F

Fortaleza Temperature Yesterday

Maximum temperature yesterday: 88 °F (at 12:00 PM)
Minimum temperature yesterday: 77 °F (at 5:00 AM)
Average temperature yesterday: 82 °F

High & Low Weather Summary for the Past Weeks

 TemperatureHumidityPressure
High88 °F (May 16, 12:00 PM)100% (May 12, 7:00 AM)30.04 "Hg (May 12, 7:00 AM)
Low75 °F (May 12, 5:00 AM)49% (May 20, 1:00 PM)29.83 "Hg (May 18, 3:00 PM)
Average82 °F78%29.94 "Hg
* Reported May 11 8:00 PM — May 26 8:00 PM, Fortaleza, Weather by CustomWeather, © 2016

Note: Actual official high and low records may vary slightly from our data, if they occured in-between our weather recording intervals... More about our weather records

Advertising

Fortaleza Weather History for the Previous 24 Hours

Scroll right to see more
 ConditionsComfort  
Time TempWeatherWind HumidityBarometerVisibility
8:00 PM
Thu, May 26
82 °FPassing clouds.6 mph74%29.92 "HgN/A
7:00 PM82 °FPassing clouds.7 mph74%29.89 "HgN/A
5:00 PM82 °FPassing clouds.13 mph70%29.86 "HgN/A
4:00 PM84 °FPassing clouds.14 mph66%29.83 "HgN/A
3:00 PM86 °FPassing clouds.15 mph59%29.86 "HgN/A
2:00 PM88 °FPassing clouds.15 mph55%29.86 "HgN/A
1:00 PM88 °FPassing clouds.14 mph55%29.89 "HgN/A
12:00 PM88 °FPassing clouds.15 mph55%29.89 "HgN/A
11:00 AM88 °FScattered clouds.13 mph55%29.92 "HgN/A
10:00 AM86 °FScattered clouds.12 mph59%29.95 "HgN/A
9:00 AM84 °FPassing clouds.14 mph62%29.95 "HgN/A
8:00 AM82 °FScattered clouds.14 mph74%29.95 "HgN/A
7:00 AM81 °FScattered clouds.9 mph79%29.95 "HgN/A
6:00 AM81 °FScattered clouds.10 mph79%29.92 "HgN/A
5:00 AM81 °FPassing clouds.9 mph79%29.92 "HgN/A
4:00 AM81 °FClear.10 mph74%29.92 "Hg10 mi
3:00 AM81 °FPassing clouds.15 mph79%29.92 "HgN/A
2:00 AM82 °FPassing clouds.14 mph74%29.92 "HgN/A
1:00 AM82 °FPassing clouds.14 mph79%29.92 "HgN/A
12:00 AM82 °FPassing clouds.16 mph79%29.95 "HgN/A
11:00 PM
Wed, May 25
82 °FPassing clouds.14 mph79%29.95 "HgN/A
10:00 PM82 °FPassing clouds.12 mph79%29.95 "HgN/A
9:00 PM82 °FPassing clouds.12 mph79%29.95 "HgN/A
Weather by CustomWeather, © 2016

See weather overviewHow to use our weather pages